Time,TemperatureF,DewpointF,PressureIn,WindDirection,WindDirectionDegrees,WindSpeedMPH,WindSpeedGustMPH,Humidity,HourlyPrecipIn,Conditions,Clouds,dailyrainin,SoftwareType,DateUTC
2013-06-02 00:01:00,54.0,30.0,30.24,SE,140,2.0,6.0,39,0.00,,,-99.99,,2013-06-02 06:01:00,
2013-06-02 00:12:00,55.0,30.0,30.23,SSE,161,1.0,3.0,38,0.00,,,-99.99,,2013-06-02 06:12:00,
2013-06-02 00:21:00,54.0,30.0,30.23,SE,129,2.0,5.0,39,0.00,,,-99.99,,2013-06-02 06:21:00,
2013-06-02 00:32:00,53.0,31.0,30.23,East,89,3.0,4.0,42,0.00,,,-99.99,,2013-06-02 06:32:00,
2013-06-02 00:41:00,52.0,32.0,30.23,ENE,65,4.0,4.0,46,0.00,,,-99.99,,2013-06-02 06:41:00,
2013-06-02 00:52:00,51.0,32.0,30.23,ENE,62,3.0,5.0,49,0.00,,,-99.99,,2013-06-02 06:52:00,
2013-06-02 01:01:00,51.0,32.0,30.21,NE,56,4.0,5.0,48,0.00,,,-99.99,,2013-06-02 07:01:00,
2013-06-02 01:11:00,51.0,32.0,30.21,NE,51,4.0,6.0,48,0.00,,,-99.99,,2013-06-02 07:11:00,
2013-06-02 01:21:00,51.0,33.0,30.21,ENE,72,3.0,5.0,50,0.00,,,-99.99,,2013-06-02 07:21:00,
2013-06-02 01:31:00,51.0,32.0,30.20,ESE,102,2.0,4.0,49,0.00,,,-99.99,,2013-06-02 07:31:00,
2013-06-02 01:42:00,51.0,32.0,30.20,ESE,108,3.0,5.0,48,0.00,,,-99.99,,2013-06-02 07:42:00,
2013-06-02 01:52:00,51.0,33.0,30.20,SE,132,4.0,7.0,50,0.00,,,-99.99,,2013-06-02 07:52:00,
2013-06-02 02:01:00,51.0,33.0,30.20,SE,142,5.0,7.0,50,0.00,,,-99.99,,2013-06-02 08:01:00,
2013-06-02 02:11:00,51.0,33.0,30.20,SE,128,2.0,5.0,51,0.00,,,-99.99,,2013-06-02 08:11:00,
2013-06-02 02:21:00,50.0,34.0,30.19,SSE,152,5.0,5.0,53,0.00,,,-99.99,,2013-06-02 08:21:00,
2013-06-02 02:31:00,51.0,34.0,30.19,South,181,4.0,6.0,52,0.00,,,-99.99,,2013-06-02 08:31:00,
2013-06-02 02:41:00,51.0,34.0,30.19,South,180,3.0,5.0,52,0.00,,,-99.99,,2013-06-02 08:41:00,
2013-06-02 02:52:00,50.0,34.0,30.19,SE,140,4.0,6.0,55,0.00,,,-99.99,,2013-06-02 08:52:00,
2013-06-02 03:01:00,50.0,35.0,30.18,South,169,4.0,8.0,56,0.00,,,-99.99,,2013-06-02 09:01:00,
2013-06-02 03:11:00,50.0,36.0,30.18,South,189,3.0,7.0,58,0.00,,,-99.99,,2013-06-02 09:11:00,
2013-06-02 03:21:00,49.0,36.0,30.18,SSW,212,5.0,7.0,60,0.00,,,-99.99,,2013-06-02 09:21:00,
2013-06-02 03:33:00,49.0,36.0,30.18,SSW,208,4.0,6.0,61,0.00,,,-99.99,,2013-06-02 09:33:00,
2013-06-02 03:42:00,49.0,36.0,30.18,South,186,4.0,6.0,61,0.00,,,-99.99,,2013-06-02 09:42:00,
2013-06-02 03:53:00,49.0,36.0,30.18,South,180,2.0,7.0,61,0.00,,,-99.99,,2013-06-02 09:53:00,
2013-06-02 04:02:00,49.0,36.0,30.18,South,184,3.0,4.0,63,0.00,,,-99.99,,2013-06-02 10:02:00,
2013-06-02 04:12:00,48.0,37.0,30.17,SSW,209,5.0,6.0,63,0.00,,,-99.99,,2013-06-02 10:12:00,
2013-06-02 04:22:00,48.0,37.0,30.17,South,179,3.0,6.0,64,0.00,,,-99.99,,2013-06-02 10:22:00,
2013-06-02 04:32:00,48.0,37.0,30.17,South,189,3.0,6.0,66,0.00,,,-99.99,,2013-06-02 10:32:00,
2013-06-02 04:42:00,48.0,36.0,30.17,South,189,3.0,5.0,65,0.00,,,-99.99,,2013-06-02 10:42:00,
2013-06-02 04:52:00,47.0,37.0,30.17,South,184,3.0,5.0,66,0.00,,,-99.99,,2013-06-02 10:52:00,
2013-06-02 05:02:00,47.0,37.0,30.17,South,183,3.0,6.0,67,0.00,,,-99.99,,2013-06-02 11:02:00,
2013-06-02 05:12:00,47.0,37.0,30.15,South,182,3.0,5.0,68,0.00,,,-99.99,,2013-06-02 11:12:00,
2013-06-02 05:21:00,47.0,37.0,30.15,South,171,4.0,5.0,68,0.00,,,-99.99,,2013-06-02 11:21:00,
2013-06-02 05:32:00,45.0,37.0,30.15,SSW,193,5.0,5.0,70,0.00,,,-99.99,,2013-06-02 11:32:00,
2013-06-02 05:42:00,45.0,37.0,30.15,SSE,167,4.0,5.0,73,0.00,,,-99.99,,2013-06-02 11:42:00,
2013-06-02 05:52:00,46.0,37.0,30.15,SSE,151,3.0,5.0,71,0.00,,,-99.99,,2013-06-02 11:52:00,
2013-06-02 06:01:00,47.0,37.0,30.15,South,173,5.0,6.0,69,0.00,,,-99.99,,2013-06-02 12:01:00,
2013-06-02 06:11:00,46.0,37.0,30.15,SSE,164,5.0,6.0,70,0.00,,,-99.99,,2013-06-02 12:11:00,
2013-06-02 06:21:00,47.0,37.0,30.15,South,186,7.0,7.0,68,0.00,,,-99.99,,2013-06-02 12:21:00,
2013-06-02 06:31:00,48.0,37.0,30.15,South,182,5.0,7.0,66,0.00,,,-99.99,,2013-06-02 12:31:00,
2013-06-02 06:42:00,48.0,37.0,30.15,SSW,208,5.0,8.0,65,0.00,,,-99.99,,2013-06-02 12:42:00,
2013-06-02 06:52:00,49.0,38.0,30.15,South,170,4.0,6.0,65,0.00,,,-99.99,,2013-06-02 12:52:00,
2013-06-02 07:01:00,49.0,38.0,30.14,South,187,3.0,7.0,65,0.00,,,-99.99,,2013-06-02 13:01:00,
2013-06-02 07:11:00,50.0,38.0,30.14,South,172,5.0,5.0,63,0.00,,,-99.99,,2013-06-02 13:11:00,
2013-06-02 07:21:00,51.0,37.0,30.14,SW,235,2.0,5.0,59,0.00,,,-99.99,,2013-06-02 13:21:00,
2013-06-02 07:32:00,52.0,38.0,30.14,SSW,213,4.0,5.0,58,0.00,,,-99.99,,2013-06-02 13:32:00,
2013-06-02 07:41:00,52.0,37.0,30.14,SW,216,3.0,5.0,56,0.00,,,-99.99,,2013-06-02 13:41:00,
2013-06-02 07:52:00,54.0,37.0,30.14,SSW,210,3.0,5.0,54,0.00,,,-99.99,,2013-06-02 13:52:00,
2013-06-02 08:01:00,55.0,37.0,30.14,SSW,192,3.0,4.0,50,0.00,,,-99.99,,2013-06-02 14:01:00,
2013-06-02 08:11:00,57.0,36.0,30.13,SSE,164,1.0,4.0,47,0.00,,,-99.99,,2013-06-02 14:11:00,
2013-06-02 08:21:00,58.0,36.0,30.13,West,272,2.0,3.0,44,0.00,,,-99.99,,2013-06-02 14:21:00,
2013-06-02 08:32:00,58.0,33.0,30.13,West,270,2.0,4.0,40,0.00,,,-99.99,,2013-06-02 14:32:00,
2013-06-02 08:42:00,60.0,34.0,30.13,NNE,24,1.0,4.0,39,0.00,,,-99.99,,2013-06-02 14:42:00,
2013-06-02 08:52:00,61.0,34.0,30.13,West,270,2.0,6.0,35,0.00,,,-99.99,,2013-06-02 14:52:00,
2013-06-02 09:01:00,61.0,32.0,30.12,NW,323,1.0,5.0,34,0.00,,,-99.99,,2013-06-02 15:01:00,
2013-06-02 09:11:00,63.0,32.0,30.12,NNW,338,2.0,3.0,31,0.00,,,-99.99,,2013-06-02 15:11:00,
2013-06-02 09:21:00,60.0,34.0,30.12,WNW,293,4.0,5.0,37,0.00,,,-99.99,,2013-06-02 15:21:00,
2013-06-02 09:32:00,61.0,34.0,30.11,NNW,332,2.0,5.0,37,0.00,,,-99.99,,2013-06-02 15:32:00,
2013-06-02 09:43:00,64.0,35.0,30.11,NE,34,4.0,4.0,35,0.00,,,-99.99,,2013-06-02 15:43:00,
2013-06-02 09:53:00,65.0,35.0,30.11,West,279,3.0,5.0,33,0.00,,,-99.99,,2013-06-02 15:53:00,
2013-06-02 10:03:00,63.0,35.0,30.10,WSW,240,3.0,6.0,35,0.00,,,-99.99,,2013-06-02 16:03:00,
2013-06-02 10:13:00,63.0,35.0,30.10,ESE,120,0.0,5.0,35,0.00,,,-99.99,,2013-06-02 16:13:00,
2013-06-02 10:23:00,66.0,35.0,30.08,East,89,5.0,6.0,33,0.00,,,-99.99,,2013-06-02 16:23:00,
2013-06-02 10:33:00,66.0,36.0,30.08,NNE,30,2.0,6.0,33,0.00,,,-99.99,,2013-06-02 16:33:00,
2013-06-02 10:42:00,67.0,35.0,30.07,NNE,18,4.0,5.0,31,0.00,,,-99.99,,2013-06-02 16:42:00,
2013-06-02 10:52:00,68.0,35.0,30.07,NNE,19,4.0,6.0,30,0.00,,,-99.99,,2013-06-02 16:52:00,
2013-06-02 11:02:00,69.0,36.0,30.07,NE,38,3.0,6.0,30,0.00,,,-99.99,,2013-06-02 17:02:00,
2013-06-02 11:12:00,68.0,35.0,30.06,NW,308,2.0,5.0,29,0.00,,,-99.99,,2013-06-02 17:12:00,
2013-06-02 11:22:00,70.0,35.0,30.06,SSW,208,2.0,6.0,28,0.00,,,-99.99,,2013-06-02 17:22:00,
2013-06-02 11:32:00,70.0,36.0,30.06,ENE,63,3.0,6.0,28,0.00,,,-99.99,,2013-06-02 17:32:00,
2013-06-02 11:42:00,71.0,36.0,30.05,East,96,5.0,6.0,28,0.00,,,-99.99,,2013-06-02 17:42:00,
2013-06-02 11:52:00,73.0,36.0,30.05,ENE,69,3.0,8.0,27,0.00,,,-99.99,,2013-06-02 17:52:00,
2013-06-02 12:01:00,72.0,35.0,30.04,WNW,292,5.0,5.0,25,0.00,,,-99.99,,2013-06-02 18:01:00,
2013-06-02 12:11:00,73.0,35.0,30.03,South,177,6.0,9.0,25,0.00,,,-99.99,,2013-06-02 18:11:00,
2013-06-02 12:21:00,74.0,35.0,30.03,ENE,67,6.0,9.0,24,0.00,,,-99.99,,2013-06-02 18:21:00,
2013-06-02 12:32:00,75.0,36.0,30.03,ENE,67,6.0,9.0,24,0.00,,,-99.99,,2013-06-02 18:32:00,
2013-06-02 12:42:00,74.0,33.0,30.01,SE,138,5.0,10.0,22,0.00,,,-99.99,,2013-06-02 18:42:00,
2013-06-02 12:52:00,76.0,32.0,30.01,ESE,106,2.0,11.0,20,0.00,,,-99.99,,2013-06-02 18:52:00,
2013-06-02 13:01:00,76.0,34.0,30.00,SSW,207,2.0,9.0,21,0.00,,,-99.99,,2013-06-02 19:01:00,
2013-06-02 13:11:00,78.0,32.0,30.00,SE,142,5.0,10.0,19,0.00,,,-99.99,,2013-06-02 19:11:00,
2013-06-02 13:21:00,76.0,32.0,29.99,SSW,203,1.0,8.0,20,0.00,,,-99.99,,2013-06-02 19:21:00,
2013-06-02 13:32:00,77.0,31.0,29.99,East,99,8.0,12.0,19,0.00,,,-99.99,,2013-06-02 19:32:00,
2013-06-02 13:42:00,79.0,30.0,29.99,SE,132,10.0,10.0,17,0.00,,,-99.99,,2013-06-02 19:42:00,
2013-06-02 13:52:00,80.0,28.0,29.98,SE,138,1.0,11.0,16,0.00,,,-99.99,,2013-06-02 19:52:00,
2013-06-02 14:02:00,80.0,29.0,29.98,SSE,149,5.0,9.0,15,0.00,,,-99.99,,2013-06-02 20:02:00,
2013-06-02 14:11:00,80.0,28.0,29.97,SSE,164,9.0,11.0,15,0.00,,,-99.99,,2013-06-02 20:11:00,
2013-06-02 14:21:00,83.0,28.0,29.97,West,277,2.0,11.0,14,0.00,,,-99.99,,2013-06-02 20:21:00,
2013-06-02 14:32:00,81.0,27.0,29.96,SE,139,5.0,10.0,14,0.00,,,-99.99,,2013-06-02 20:32:00,
2013-06-02 14:42:00,83.0,27.0,29.96,East,96,2.0,6.0,13,0.00,,,-99.99,,2013-06-02 20:42:00,
2013-06-02 14:52:00,82.0,25.0,29.94,NNW,343,4.0,11.0,13,0.00,,,-99.99,,2013-06-02 20:52:00,
2013-06-02 15:01:00,83.0,28.0,29.94,ENE,70,2.0,11.0,14,0.00,,,-99.99,,2013-06-02 21:01:00,
2013-06-02 15:11:00,83.0,28.0,29.93,NNE,17,6.0,12.0,14,0.00,,,-99.99,,2013-06-02 21:11:00,
2013-06-02 15:21:00,82.0,27.0,29.93,ENE,72,6.0,15.0,14,0.00,,,-99.99,,2013-06-02 21:21:00,
2013-06-02 15:33:00,83.0,25.0,29.93,ENE,68,1.0,10.0,12,0.00,,,-99.99,,2013-06-02 21:33:00,
2013-06-02 15:42:00,86.0,26.0,29.92,NNE,26,5.0,9.0,12,0.00,,,-99.99,,2013-06-02 21:42:00,
2013-06-02 15:53:00,83.0,28.0,29.92,East,94,3.0,12.0,13,0.00,,,-99.99,,2013-06-02 21:53:00,
2013-06-02 16:03:00,83.0,26.0,29.92,East,84,4.0,12.0,12,0.00,,,-99.99,,2013-06-02 22:03:00,
2013-06-02 16:12:00,84.0,26.0,29.91,NE,42,3.0,7.0,12,0.00,,,-99.99,,2013-06-02 22:12:00,
2013-06-02 16:23:00,85.0,27.0,29.91,North,355,2.0,9.0,12,0.00,,,-99.99,,2013-06-02 22:23:00,
2013-06-02 16:33:00,84.0,27.0,29.90,East,90,5.0,12.0,12,0.00,,,-99.99,,2013-06-02 22:33:00,
2013-06-02 16:42:00,85.0,27.0,29.90,East,86,9.0,12.0,12,0.00,,,-99.99,,2013-06-02 22:42:00,
2013-06-02 16:52:00,84.0,29.0,29.90,SE,130,5.0,12.0,14,0.00,,,-99.99,,2013-06-02 22:52:00,
2013-06-02 17:02:00,85.0,26.0,29.89,SE,146,3.0,8.0,12,0.00,,,-99.99,,2013-06-02 23:02:00,
2013-06-02 17:12:00,83.0,27.0,29.89,East,94,5.0,13.0,13,0.00,,,-99.99,,2013-06-02 23:12:00,
2013-06-02 17:22:00,83.0,28.0,29.89,East,80,9.0,13.0,13,0.00,,,-99.99,,2013-06-02 23:22:00,
2013-06-02 17:32:00,83.0,27.0,29.87,East,90,2.0,9.0,13,0.00,,,-99.99,,2013-06-02 23:32:00,
2013-06-02 17:42:00,81.0,30.0,29.87,SSE,162,3.0,12.0,15,0.00,,,-99.99,,2013-06-02 23:42:00,
2013-06-02 17:52:00,80.0,31.0,29.87,East,88,2.0,7.0,17,0.00,,,-99.99,,2013-06-02 23:52:00,
2013-06-02 18:01:00,80.0,33.0,29.87,SSE,162,10.0,11.0,18,0.00,,,-99.99,,2013-06-03 00:01:00,
2013-06-02 18:11:00,80.0,30.0,29.86,ESE,102,7.0,11.0,16,0.00,,,-99.99,,2013-06-03 00:11:00,
2013-06-02 18:21:00,80.0,28.0,29.86,SE,141,5.0,13.0,15,0.00,,,-99.99,,2013-06-03 00:21:00,
2013-06-02 18:32:00,80.0,29.0,29.86,SSE,163,6.0,12.0,15,0.00,,,-99.99,,2013-06-03 00:32:00,
2013-06-02 18:42:00,80.0,29.0,29.86,SSE,156,8.0,16.0,16,0.00,,,-99.99,,2013-06-03 00:42:00,
2013-06-02 18:51:00,80.0,28.0,29.86,SE,141,6.0,17.0,15,0.00,,,-99.99,,2013-06-03 00:51:00,
2013-06-02 19:01:00,80.0,29.0,29.85,SSE,149,4.0,14.0,15,0.00,,,-99.99,,2013-06-03 01:01:00,
2013-06-02 19:11:00,80.0,29.0,29.85,SE,124,7.0,15.0,16,0.00,,,-99.99,,2013-06-03 01:11:00,
2013-06-02 19:21:00,80.0,28.0,29.86,South,171,12.0,17.0,15,0.00,,,-99.99,,2013-06-03 01:21:00,
2013-06-02 19:32:00,79.0,28.0,29.86,SSE,155,9.0,15.0,15,0.00,,,-99.99,,2013-06-03 01:32:00,
2013-06-02 19:42:00,79.0,29.0,29.86,SSE,164,9.0,12.0,16,0.00,,,-99.99,,2013-06-03 01:42:00,
2013-06-02 19:52:00,78.0,29.0,29.86,South,174,6.0,13.0,17,0.00,,,-99.99,,2013-06-03 01:52:00,
2013-06-02 20:02:00,78.0,31.0,29.87,SSE,148,5.0,11.0,18,0.00,,,-99.99,,2013-06-03 02:02:00,
2013-06-02 20:12:00,76.0,33.0,29.86,SE,139,6.0,9.0,20,0.00,,,-99.99,,2013-06-03 02:12:00,
2013-06-02 20:22:00,76.0,32.0,29.86,SE,126,3.0,9.0,20,0.00,,,-99.99,,2013-06-03 02:22:00,
2013-06-02 20:32:00,75.0,32.0,29.86,SSE,162,3.0,8.0,20,0.00,,,-99.99,,2013-06-03 02:32:00,
2013-06-02 20:42:00,75.0,30.0,29.86,SE,143,2.0,5.0,19,0.00,,,-99.99,,2013-06-03 02:42:00,
2013-06-02 20:52:00,72.0,34.0,29.86,ESE,108,2.0,5.0,25,0.00,,,-99.99,,2013-06-03 02:52:00,
2013-06-02 21:02:00,69.0,38.0,29.87,ESE,114,3.0,5.0,31,0.00,,,-99.99,,2013-06-03 03:02:00,
2013-06-02 21:12:00,68.0,38.0,29.87,ESE,123,3.0,8.0,32,0.00,,,-99.99,,2013-06-03 03:12:00,
2013-06-02 21:22:00,69.0,36.0,29.87,ESE,107,8.0,10.0,30,0.00,,,-99.99,,2013-06-03 03:22:00,
2013-06-02 21:33:00,68.0,36.0,29.87,East,101,8.0,9.0,31,0.00,,,-99.99,,2013-06-03 03:33:00,
2013-06-02 21:43:00,69.0,35.0,29.87,ESE,123,7.0,10.0,29,0.00,,,-99.99,,2013-06-03 03:43:00,
2013-06-02 21:53:00,68.0,35.0,29.87,SE,132,4.0,8.0,29,0.00,,,-99.99,,2013-06-03 03:53:00,
2013-06-02 22:03:00,69.0,33.0,29.87,ESE,117,6.0,7.0,27,0.00,,,-99.99,,2013-06-03 04:03:00,
2013-06-02 22:12:00,68.0,34.0,29.87,ESE,110,5.0,7.0,29,0.00,,,-99.99,,2013-06-03 04:12:00,
2013-06-02 22:23:00,68.0,32.0,29.87,ESE,114,4.0,8.0,25,0.00,,,-99.99,,2013-06-03 04:23:00,
2013-06-02 22:33:00,68.0,32.0,29.86,SSE,147,6.0,9.0,26,0.00,,,-99.99,,2013-06-03 04:33:00,
2013-06-02 22:42:00,68.0,31.0,29.86,SE,126,4.0,9.0,24,0.00,,,-99.99,,2013-06-03 04:42:00,
2013-06-02 22:52:00,68.0,30.0,29.86,SSW,203,3.0,6.0,24,0.00,,,-99.99,,2013-06-03 04:52:00,
2013-06-02 23:02:00,66.0,31.0,29.86,South,191,2.0,5.0,26,0.00,,,-99.99,,2013-06-03 05:02:00,
2013-06-02 23:12:00,64.0,31.0,29.86,WSW,254,3.0,3.0,29,0.00,,,-99.99,,2013-06-03 05:12:00,
2013-06-02 23:22:00,66.0,32.0,29.86,South,185,6.0,10.0,29,0.00,,,-99.99,,2013-06-03 05:22:00,
2013-06-02 23:32:00,65.0,34.0,29.86,South,191,4.0,10.0,31,0.00,,,-99.99,,2013-06-03 05:32:00,
2013-06-02 23:42:00,65.0,36.0,29.85,South,187,3.0,7.0,34,0.00,,,-99.99,,2013-06-03 05:42:00,
2013-06-02 23:52:00,64.0,37.0,29.85,South,187,4.0,8.0,37,0.00,,,-99.99,,2013-06-03 05:52:00,